Location: Altenst�hlen
(53.5567°N, 8.9425°E)
Time: 01:06:59
(UTC+00:00)

Cosmos 1125 Rocket - Pass Details

Date: 23 October 2019
Orbit: 758 x 780 km, 74.0° (Epoch: 14 November)

Event Time Altitude Azimuth Distance (km) Brightness Sun altitude
Rises 19:31:57 0° 333° (NNW) 3,266 7.5 -30.1°
Reaches altitude 10° 19:34:21 10° 332° (NNW) 2,331 6.6 -30.4°
Enters shadow 19:38:15 50° 327° (NNW) 976 4.2 -30.9°
